Hourly Data Report for October 19, 2014

All times are specified in Local Standard Time (LST). Add 1 hour to adjust for Daylight Saving Time where and when it is observed.

PENTICTON A
BRITISH COLUMBIA

49°27'45.000" N
119°36'08.000" W
344.40 m
1126146
71889
YYF

Download Data

Hourly Data (October 2014)
Hourly Data Report for October 19, 2014
Temp Definition
°C
Dew Point Temp Definition
°C
Rel Hum Definition
%
Wind Dir Definition
10's deg

Wind Spd Definition
km/h
Visibility Definition
km
Stn Press Definition
kPa
Hmdx Definition


Wind Chill Definition


Weather Definition


TIME
00:00 Legend Double Dagger 13.7 9.8 77 16 9 24.1 97.32     LegendNANA
01:00 Legend Double Dagger 13.6 10.1 79 19 7 24.1 97.30     Mostly Cloudy
02:00 Legend Double Dagger 13.4 9.5 77 21 10 24.1 97.30     LegendNANA
03:00 Legend Double Dagger 12.9 9.6 80 18 9 24.1 97.25     LegendNANA
04:00 Legend Double Dagger 12.4 9.4 82 36 2 24.1 97.25     Mostly Cloudy
05:00 Legend Double Dagger 11.7 9.5 86 34 3 24.1 97.26     LegendNANA
06:00 Legend Double Dagger 11.6 9.7 88 25 3 24.1 97.22     LegendNANA
07:00 Legend Double Dagger 11.2 9.5 89 34 7 24.1 97.18     Cloudy
08:00 Legend Double Dagger 12.4 10.2 86 14 4 24.1 97.16     LegendNANA
09:00 Legend Double Dagger 13.4 10.6 83 36 2 24.1 97.12     LegendNANA
10:00 Legend Double Dagger 14.3 10.4 77 1 7 24.1 97.06     Mostly Cloudy
11:00 Legend Double Dagger 14.8 10.5 75 34 12 24.1 97.01     LegendNANA
12:00 Legend Double Dagger 15.0 10.7 75 35 11 24.1 96.96     LegendNANA
13:00 Legend Double Dagger 16.5 11.1 70 35 8 24.1 96.85     Mostly Cloudy
14:00 Legend Double Dagger 18.5 10.9 61 1 8 24.1 96.72     LegendNANA
15:00 Legend Double Dagger 19.9 10.4 54 32 5 24.1 96.63     LegendNANA
16:00 Legend Double Dagger 19.5 10.1 54 18 21 24.1 96.58     Clear
17:00 Legend Double Dagger 17.2 10.6 65 19 21 24.1 96.58     LegendNANA
18:00 Legend Double Dagger 17.3 9.6 60 19 22 24.1 96.58     LegendNANA
19:00 Legend Double Dagger 16.4 10.1 66 14 9 24.1 96.59     Clear
20:00 Legend Double Dagger 16.7 9.5 62 12 12 24.1 96.59     LegendNANA
21:00 Legend Double Dagger 16.2 9.5 64 14 19 24.1 96.56     LegendNANA
22:00 Legend Double Dagger 15.6 9.3 66 14 22 24.1 96.56     Clear
23:00 Legend Double Dagger 15.3 9.5 68 15 22 24.1 96.51     LegendNANA

Notes on Data Quality.

Legend

  • E = Estimated
  • M = Missing
  • NA = Not Available
  • ‡ = Partner data that is not subject to review by the National Climate Archives
Date modified: